Zurück zum Katalog

COSMOS 738

AktivMilitärLEO
NORAD 7827·PAYLOAD·🇷🇺 Russia

Gestartet May 28, 1975 von Plesetsk Cosmodrome

Loading…

Nächste Überflüge (nächste 24 Stunden)

TLE

AktuellSource: Space-Track

Epoche: Sep 14, 2026, 13:13 UTC

1 07827U 75045G   26257.55124633 -.00000021  00000-0 -41973-4 0  9999
2 07827  74.0143  93.7659 0025017 139.1771 249.1023 12.44243083330129

Verfolge COSMOS 738 in Echtzeit mit AllMySat

Download on the App Store